SL-8 DEB, 22198

Orbit data source: Space-Track

SL-8 DEB, 22198 is space debris in LEO originally from a launch on Tue, 12 Feb 1991 UTC launched from the Plesetsk Missile And Space Complex (PKMTR). Debris objects in space refer to the collection of defunct objects orbiting the Earth. Examples of debris include non-operational satellites, rocket bodies, and fragments generated from explosions, collisions, or faulty payload assembly.

Loading next visibility...
Identifier
22198, 1991-009CS
Orbit
LEO
Country
Flag of CISCIS
Related business
Manufacturer
Unknown
Mission
Spacecraft
Bus & Motor
Unknown
Mass
Unknown
Launch date (UTC)
1991-02-12 (35 years ago)
Launch vehicle
Unknown
Launch site
Plesetsk Missile And Space Complex (PKMTR)
Object type
Payload
Rocket body
Debris
Shape & HBR
Unknown shape, 0.1 m
Radar Cross Section
Medium (>0.1 m² and <1 m²)

Expand to show TLE details & history
Last TLE update: 3 days ago

TLE from 3 days ago
0 SL-8 DEB
1 22198U 91009CS  26170.57475314  .00000056  00000-0  57849-3 0  9990
2 22198  73.9152  96.9918 0145845  64.8084 114.5041 12.30656257584527
Epoch: 2026-06-19T13:47Z
TLE epoch observation values (Epoch: 2026-06-19T13:47:38.671Z)
Latitude
-0.89399°
Longitude
162.53546°
Altitude
1,598.26 km
Speed
7.048 km/s
True Right ascension
18h 28m 59s
True Declination
0° 53' 21"
Sunlit
Object was in full shadow at epoch
Visualization orbit readout
Latitude
Unknown
Longitude
Unknown
Altitude
Unknown
Speed
Unknown
Apparent Right ascension
Unknown
Apparent Declination
Unknown
Sunlit
N/A
Visualization observer readout
Local Sidereal Time
08:24:43
Azimuth
Unknown
Elevation
Unknown
Doppler factor
Unknown
Orbital elements
Apogee altitude
1,659.874 km
Perigee altitude
1,428.783 km
Semi-major axis
7,922.465 km
Eccentricity
0.01458
Inclination
73.9152°
RAAN
96.9918°
Arg. of periapsis
64.8084°
True anomaly
116.01324°
Mean anomaly
114.5041°
Eccentric anomaly
115.25983°
Mean motion
3.07789 °/min
Orbital period
116.96 mins
BSTAR
0.00057849
Loading maneuver chart data...
Computing Atmospheric mass density...
Loading historical data...
Loading historical data...
Loading historical data...
Loading historical data...
Loading historical data...
Loading historical data...
Loading historical data...

Documentation

Showing up to 5 results
|